[[{"header":{"parameterUnit":"m.s-1","parameterCategory":1,"la1":30.2991,"la2":30.254,"lo1":-89.0895,"lo2":-89.0444,"dy":0.0017,"dx":0.0017,"nx":28,"ny":28,"refTime":"2023-07-23T03:00:00:Z","depth":0,"parameterNumber":2,"parameterNumberName":"U-component_of_WINDS"},"data":[0,0,0,0,0,0,0,0,0,0,0,0,0,0,0,0,0,0,0,0,0,0,0,0,0,0,0,0,0,0,0,0,0,0,0,0,0,0,0,0,0,0,0,0,0,0,0,0,0,0,0,0,0,0,0,0,0,0,-0.2189,-0.2189,0,-0.2185,-0.2185,-0.2185,-0.2145,-0.2144,-0.2143,-0.2142,-0.2141,-0.2142,-0.2143,0,0,0,0,0,0,0,0,0,0,0,0,0,-0.2163,-0.2164,-0.2189,-0.2189,-0.2189,-0.2185,-0.2185,-0.2185,-0.2145,-0.2144,-0.2143,-0.2142,-0.2141,-0.2142,-0.2143,0,0,0,0,0,0,0,0,0,0,0,0,0,-0.2169,-0.2164,-0.2189,-0.2169,-0.2167,-0.2185,-0.2185,-0.2185,-0.2146,-0.2144,-0.2142,-0.2141,-0.214,-0.2142,-0.2143,-0.2182,0,0,-0.2147,-0.2148,0,0,0,0,0,0,0,0,-0.2169,-0.217,-0.2172,-0.217,-0.2168,-0.2164,-0.2176,-0.2184,-0.2146,-0.2154,-0.2142,-0.214,-0.215,-0.215,-0.2153,-0.2182,-0.2182,-0.2147,-0.2148,-0.2149,-0.2149,0,0,0,0,0,0,0,-0.2168,-0.217,-0.2188,-0.2172,-0.217,-0.216,-0.2159,-0.2177,-0.2161,-0.2153,-0.215,-0.215,-0.2149,-0.2152,-0.2153,-0.2182,-0.2147,-0.2148,-0.2149,-0.215,-0.224,-0.2242,0,0,0,0,0,0,-0.217,-0.217,-0.2188,-0.2188,-0.2164,-0.2162,-0.2161,-0.2167,-0.216,-0.2158,-0.2151,-0.2148,-0.215,-0.2151,-0.2153,-0.2197,-0.2149,-0.215,-0.2151,-0.2239,-0.2241,-0.2242,0,0,0,0,0,0,-0.217,-0.2172,-0.2188,-0.2178,-0.2179,-0.2164,-0.2171,-0.2168,-0.2171,-0.2159,-0.2156,-0.2157,-0.2149,-0.2151,-0.2174,-0.2197,-0.2151,-0.2152,-0.2237,-0.2239,-0.2242,-0.2287,0,0,0,0,0,0,-0.2169,-0.2173,-0.2187,-0.2178,-0.218,-0.221,-0.2172,-0.2169,-0.2173,-0.2169,-0.2164,-0.2162,-0.2148,-0.2172,-0.2176,-0.2198,-0.2153,-0.2235,-0.2238,-0.2241,-0.2283,-0.229,-0.2297,0,0,0,0,0,-0.2169,-0.2201,-0.2188,-0.219,-0.2197,-0.2211,-0.2212,-0.2195,-0.2175,-0.2189,-0.2181,-0.2162,-0.2193,-0.2175,-0.2179,-0.2201,-0.2233,-0.2237,-0.2241,-0.228,-0.2289,-0.2296,0,0,0,0,0,0,-0.2214,-0.2199,-0.2185,-0.2215,-0.2215,-0.2204,-0.2222,-0.2205,-0.2211,-0.2207,-0.2186,-0.2185,-0.2212,-0.2208,-0.2189,-0.2238,-0.221,-0.2214,-0.2239,-0.2247,-0.2254,-0.2254,-0.2154,0,0,0,0,0,-0.2227,-0.2239,-0.2226,-0.2254,-0.2254,-0.2238,-0.2243,-0.223,-0.2229,-0.2229,-0.2222,-0.2223,-0.2232,-0.2239,-0.2248,-0.2282,-0.228,-0.2299,-0.2306,-0.2311,-0.2316,-0.2333,-0.2341,-0.2254,-0.2254,-0.2254,0,0,-0.2256,-0.2249,-0.2258,-0.2263,-0.226,-0.2273,-0.2238,-0.2254,-0.2263,-0.2231,-0.2253,-0.2248,-0.2247,-0.2276,-0.2288,-0.2274,-0.2339,-0.2316,-0.232,-0.2322,-0.2337,-0.2345,-0.2353,-0.2257,-0.2256,-0.2256,0,0,-0.2314,-0.231,-0.2332,-0.233,-0.2326,-0.2315,-0.2321,-0.2312,-0.2308,-0.2328,-0.2304,-0.2315,-0.2333,-0.2332,-0.2335,-0.239,-0.2372,-0.2393,-0.2428,-0.2445,-0.2452,-0.2458,-0.2478,-0.2485,-0.2397,-0.2397,-0.2397,0,-0.2349,-0.2367,-0.2346,-0.2362,-0.2365,-0.2335,-0.2357,-0.2357,-0.2357,-0.2359,-0.2343,-0.2363,-0.236,-0.2388,-0.2401,-0.2404,-0.2409,-0.2394,-0.2452,-0.2458,-0.2464,-0.2482,-0.2489,-0.24,-0.24,-0.2399,-0.2399,0,-0.2411,-0.2424,-0.2442,-0.2441,-0.2446,-0.2465,-0.2447,-0.2454,-0.244,-0.2431,-0.2452,-0.2447,-0.2453,-0.2458,-0.2445,-0.2484,-0.2475,-0.2456,-0.2428,-0.2475,-0.2492,-0.2499,-0.2404,-0.2403,-0.2402,-0.2401,0,0,-0.25,-0.2485,-0.2492,-0.2491,-0.2484,-0.2493,-0.2511,-0.2515,-0.2522,-0.2522,-0.2537,-0.2551,-0.2532,-0.2535,-0.2521,-0.2536,-0.2579,-0.2514,-0.2514,-0.2527,-0.2621,-0.2636,-0.2645,-0.2566,-0.2568,-0.2569,-0.2621,0,-0.2556,-0.2584,-0.2565,-0.2597,-0.2608,-0.2578,-0.2594,-0.2591,-0.2582,-0.259,-0.2581,-0.2591,-0.2566,-0.2567,-0.258,-0.2571,-0.2598,-0.2567,-0.258,-0.2581,-0.2582,-0.2654,-0.267,-0.272,-0.2628,-0.2629,-0.263,0,-0.2625,-0.2627,-0.266,-0.2649,-0.2653,-0.2667,-0.2669,-0.2677,-0.2673,-0.2665,-0.2667,-0.2648,-0.2665,-0.2636,-0.2658,-0.2638,-0.2641,-0.2638,-0.2639,-0.2641,-0.2609,-0.2658,-0.2736,-0.2744,-0.264,-0.2639,-0.2639,0,-0.2687,-0.2697,-0.2718,-0.2717,-0.2705,-0.2716,-0.2711,-0.2705,-0.2709,-0.2711,-0.2713,-0.2717,-0.2719,-0.2723,-0.2706,-0.2687,-0.2731,-0.2701,-0.2725,-0.2726,-0.2737,-0.2737,-0.2818,-0.2738,-0.2738,-0.2738,-0.2738,0,-0.2751,-0.2773,-0.2745,-0.2758,-0.2781,-0.2758,-0.2781,-0.2773,-0.2768,-0.2779,-0.2754,-0.2765,-0.2741,-0.275,-0.2737,-0.2757,-0.2758,-0.2753,-0.2749,-0.2755,-0.2756,-0.2759,-0.2755,-0.274,-0.274,-0.2739,-0.2739,0,-0.2825,-0.2807,-0.2827,-0.2813,-0.281,-0.2828,-0.2815,-0.2827,-0.2815,-0.2829,-0.2831,-0.2814,-0.2822,-0.2805,-0.2812,-0.2803,-0.2831,-0.2822,-0.2833,-0.283,-0.2856,-0.2854,-0.2942,-0.2952,-0.2866,-0.2867,-0.2867,0,-0.2868,-0.2883,-0.287,-0.2875,-0.2871,-0.288,-0.2883,-0.286,-0.2864,-0.286,-0.2872,-0.2877,-0.2881,-0.2896,-0.2884,-0.2889,-0.2879,-0.291,-0.288,-0.2886,-0.288,-0.288,-0.2881,-0.2917,-0.2918,-0.2918,-0.2919,0,-0.2946,-0.2936,-0.2941,-0.2942,-0.2946,-0.2946,-0.2944,-0.295,-0.2926,-0.2932,-0.2939,-0.2942,-0.2947,-0.2954,-0.2955,-0.2951,-0.2931,-0.2928,-0.2934,-0.2941,-0.2947,-0.2944,-0.285,-0.2927,-0.2926,-0.2925,-0.2925,-0.2925,-0.3006,-0.3018,-0.301,-0.3015,-0.3011,-0.301,-0.302,-0.3008,-0.3014,-0.3016,-0.3002,-0.3013,-0.3007,-0.3006,-0.3003,-0.3011,-0.2998,-0.3007,-0.3009,-0.3012,-0.3016,-0.2945,-0.3012,-0.3011,-0.3011,-0.3011,-0.3011,0,-0.3083,-0.3075,-0.3081,-0.3079,-0.3083,-0.3062,-0.3059,-0.3064,-0.3073,-0.3069,-0.3072,-0.3081,-0.3086,-0.3073,-0.3077,-0.3085,-0.3077,-0.3087,-0.3087,-0.3086,-0.3028,-0.3022,-0.3094,-0.3094,-0.3094,-0.3094,-0.3094,-0.3094,-0.3123,-0.3142,-0.3131,-0.3147,-0.314,-0.3149,-0.3149,-0.3147,-0.3143,-0.3153,-0.3157,-0.3148,-0.314,-0.3143,-0.3146,-0.3142,-0.3145,-0.3159,-0.3152,-0.3098,-0.309,-0.3083,-0.3077,-0.316,-0.316,-0.321,-0.321,-0.3211]},{"header":{"parameterUnit":"m.s-1","parameterCategory":1,"la1":30.2991,"la2":30.254,"lo1":-89.0895,"lo2":-89.0444,"dy":0.0017,"dx":0.0017,"nx":28,"ny":28,"refTime":"2023-07-23T03:00:00:Z","depth":0,"parameterNumber":3,"parameterNumberName":"V-component_of_WINDS"},"data":[0,0,0,0,0,0,0,0,0,0,0,0,0,0,0,0,0,0,0,0,0,0,0,0,0,0,0,0,0,0,0,0,0,0,0,0,0,0,0,0,0,0,0,0,0,0,0,0,0,0,0,0,0,0,0,0,0,0,-2.5433,-2.5435,0,-2.5563,-2.5564,-2.5566,-2.5568,-2.5566,-2.5565,-2.5563,-2.5695,-2.57,-2.5704,0,0,0,0,0,0,0,0,0,0,0,0,0,-2.5187,-2.5191,-2.5433,-2.5435,-2.5437,-2.5563,-2.5564,-2.5566,-2.5568,-2.5566,-2.5564,-2.5563,-2.5693,-2.5699,-2.5705,0,0,0,0,0,0,0,0,0,0,0,0,0,-2.5303,-2.5193,-2.5433,-2.5453,-2.5456,-2.5562,-2.5564,-2.5567,-2.5569,-2.5566,-2.5564,-2.5562,-2.5691,-2.5698,-2.5706,-2.5801,0,0,-2.5729,-2.5732,0,0,0,0,0,0,0,0,-2.5296,-2.5312,-2.5448,-2.5452,-2.5455,-2.5547,-2.5526,-2.5645,-2.5569,-2.5526,-2.5563,-2.556,-2.5647,-2.5658,-2.5688,-2.5807,-2.5812,-2.5729,-2.5734,-2.5737,-2.5739,0,0,0,0,0,0,0,-2.5288,-2.5306,-2.5485,-2.545,-2.5455,-2.5455,-2.5469,-2.5548,-2.5599,-2.5529,-2.553,-2.5545,-2.5649,-2.5681,-2.5691,-2.5814,-2.5729,-2.5736,-2.574,-2.5743,-2.6017,-2.6019,0,0,0,0,0,0,-2.5276,-2.5299,-2.548,-2.5488,-2.5368,-2.5461,-2.5477,-2.552,-2.5598,-2.5607,-2.5547,-2.5545,-2.5669,-2.5682,-2.5696,-2.5812,-2.5737,-2.5744,-2.5748,-2.6014,-2.6017,-2.602,0,0,0,0,0,0,-2.5271,-2.5292,-2.5475,-2.5394,-2.5417,-2.5468,-2.5517,-2.5524,-2.5556,-2.5611,-2.562,-2.5571,-2.5668,-2.5685,-2.5774,-2.5816,-2.5748,-2.5754,-2.6011,-2.6015,-2.6019,-2.6044,0,0,0,0,0,0,-2.5264,-2.529,-2.5327,-2.5395,-2.5422,-2.5553,-2.5519,-2.5528,-2.5569,-2.5567,-2.5636,-2.5645,-2.5667,-2.5763,-2.5782,-2.5825,-2.576,-2.6007,-2.6013,-2.6018,-2.604,-2.6049,-2.6056,0,0,0,0,0,-2.5255,-2.5329,-2.5329,-2.5351,-2.5469,-2.5555,-2.557,-2.5595,-2.5572,-2.5609,-2.5645,-2.5642,-2.5808,-2.5772,-2.5793,-2.584,-2.6005,-2.6011,-2.6017,-2.6036,-2.6047,-2.6056,0,0,0,0,0,0,-2.5265,-2.5339,-2.5339,-2.5438,-2.549,-2.5555,-2.5603,-2.5606,-2.5665,-2.5661,-2.5689,-2.5704,-2.5793,-2.5825,-2.5784,-2.5935,-2.5904,-2.5914,-2.5911,-2.5922,-2.593,-2.592,-2.5766,0,0,0,0,0,-2.5279,-2.5343,-2.5403,-2.5484,-2.5511,-2.5552,-2.5591,-2.5605,-2.566,-2.5682,-2.5724,-2.5778,-2.5842,-2.5883,-2.5946,-2.6044,-2.6059,-2.6086,-2.6094,-2.6101,-2.611,-2.6164,-2.6176,-2.6041,-2.6041,-2.6041,0,0,-2.5308,-2.5356,-2.5395,-2.5488,-2.553,-2.5595,-2.5571,-2.5641,-2.5689,-2.5693,-2.578,-2.5812,-2.5874,-2.5968,-2.6012,-2.5997,-2.615,-2.6109,-2.6113,-2.6119,-2.6171,-2.6184,-2.6196,-2.6045,-2.6044,-2.6044,0,0,-2.5395,-2.5437,-2.5509,-2.5552,-2.5616,-2.5643,-2.566,-2.5725,-2.5747,-2.5835,-2.5839,-2.5896,-2.6006,-2.6049,-2.6086,-2.6187,-2.6187,-2.6207,-2.625,-2.6302,-2.6312,-2.6322,-2.6358,-2.637,-2.6215,-2.6216,-2.6216,0,-2.5423,-2.5521,-2.5546,-2.5616,-2.5657,-2.5663,-2.5735,-2.5775,-2.5857,-2.5884,-2.5867,-2.6005,-2.6046,-2.6151,-2.6175,-2.6205,-2.6225,-2.6199,-2.6309,-2.6319,-2.6328,-2.6363,-2.6376,-2.6217,-2.6217,-2.6217,-2.6217,0,-2.5552,-2.562,-2.5671,-2.5749,-2.5795,-2.5866,-2.5901,-2.5945,-2.5955,-2.5983,-2.6072,-2.6122,-2.6194,-2.622,-2.6231,-2.6326,-2.6315,-2.6303,-2.6272,-2.6343,-2.6376,-2.6389,-2.622,-2.622,-2.6219,-2.6219,0,0,-2.5649,-2.574,-2.5758,-2.5793,-2.5864,-2.5917,-2.5988,-2.6058,-2.6095,-2.615,-2.621,-2.6303,-2.6292,-2.6333,-2.6349,-2.6395,-2.6471,-2.6377,-2.6379,-2.6393,-2.6578,-2.6587,-2.6602,-2.6471,-2.6474,-2.6476,-2.6573,0,-2.5743,-2.587,-2.5894,-2.6004,-2.6067,-2.6073,-2.6134,-2.6184,-2.6212,-2.627,-2.6301,-2.6366,-2.6347,-2.6372,-2.6418,-2.6452,-2.6509,-2.6446,-2.6527,-2.6529,-2.6511,-2.6619,-2.6628,-2.6718,-2.6586,-2.6588,-2.659,0,-2.587,-2.5928,-2.6044,-2.6106,-2.6133,-2.6189,-2.6255,-2.6309,-2.6366,-2.6383,-2.6429,-2.6439,-2.6512,-2.6477,-2.6578,-2.6534,-2.6569,-2.6591,-2.6595,-2.6603,-2.6564,-2.663,-2.6747,-2.676,-2.6611,-2.6609,-2.6607,0,-2.5929,-2.6036,-2.612,-2.615,-2.6224,-2.6262,-2.6295,-2.6349,-2.6389,-2.6447,-2.6474,-2.6539,-2.6575,-2.6625,-2.6652,-2.6624,-2.675,-2.6718,-2.6766,-2.6766,-2.6793,-2.6791,-2.6916,-2.6815,-2.6815,-2.6815,-2.6814,0,-2.6031,-2.6102,-2.6147,-2.6198,-2.6277,-2.6304,-2.6381,-2.6413,-2.6461,-2.6518,-2.6527,-2.658,-2.6613,-2.6671,-2.6692,-2.6772,-2.6788,-2.6804,-2.6809,-2.6803,-2.6801,-2.6826,-2.6821,-2.6818,-2.6817,-2.6817,-2.6816,0,-2.611,-2.6144,-2.6235,-2.6297,-2.6314,-2.637,-2.6423,-2.6473,-2.6501,-2.6573,-2.6591,-2.6635,-2.6704,-2.6736,-2.682,-2.6835,-2.6925,-2.6926,-2.6906,-2.6908,-2.6954,-2.695,-2.7101,-2.7121,-2.7006,-2.7007,-2.7008,0,-2.6173,-2.6228,-2.6296,-2.6335,-2.6368,-2.6431,-2.6473,-2.65,-2.6543,-2.6611,-2.6652,-2.6721,-2.6777,-2.6886,-2.6925,-2.699,-2.6992,-2.704,-2.7002,-2.6994,-2.6992,-2.6989,-2.6994,-2.7047,-2.7048,-2.7049,-2.705,0,-2.6282,-2.6295,-2.6355,-2.642,-2.6469,-2.6522,-2.6574,-2.6605,-2.6641,-2.6688,-2.6758,-2.6802,-2.6888,-2.6956,-2.7023,-2.7056,-2.7059,-2.7062,-2.7076,-2.7071,-2.7058,-2.7065,-2.6925,-2.7058,-2.7058,-2.7057,-2.7057,-2.7056,-2.6355,-2.6403,-2.6459,-2.6524,-2.6566,-2.6614,-2.6664,-2.6698,-2.6757,-2.6829,-2.6842,-2.6916,-2.697,-2.706,-2.7096,-2.7154,-2.7142,-2.7163,-2.7169,-2.7174,-2.7176,-2.7048,-2.7166,-2.7166,-2.7166,-2.7165,-2.7165,0,-2.6463,-2.6499,-2.6559,-2.6631,-2.6683,-2.6681,-2.6738,-2.6781,-2.6847,-2.6897,-2.6952,-2.7032,-2.7098,-2.7142,-2.7208,-2.7246,-2.7249,-2.7263,-2.726,-2.7268,-2.7183,-2.7163,-2.7259,-2.7259,-2.7259,-2.7259,-2.7259,-2.7259,-2.6526,-2.6608,-2.6628,-2.673,-2.6765,-2.6838,-2.6871,-2.6915,-2.6955,-2.7044,-2.7099,-2.7127,-2.7174,-2.7244,-2.7304,-2.7315,-2.7339,-2.7353,-2.7364,-2.7283,-2.7274,-2.7264,-2.7246,-2.7358,-2.7358,-2.7444,-2.7445,-2.7445]}]]